Location: Devore Heights
(34.2372°N, 117.4156°W)
Time: 23:24:23
(UTC+00:00)

Transit 4A - Pass Details

Date: 17 September 2024
Orbit: 864 x 978 km, 66.8° (Epoch: 13 October)

Event Time Altitude Azimuth Distance (km) Brightness Sun altitude
Rises 19:13:05 0° 335° (NNW) 3,616 10.7 56.8°
Reaches altitude 10° 19:15:37 10° 338° (NNW) 2,683 10.1 56.9°
Maximum altitude 19:21:54 74° 63° (ENE) 1,008 9.1 57.2°
Drops below altitude 10° 19:28:15 10° 148° (SSE) 2,715 11.0 57.4°
Sets 19:30:50 0° 150° (SSE) 3,661 11.4 57.4°
